TimeCDT,TemperatureF,Dew PointF,Humidity,Sea Level PressureIn,VisibilityMPH,Wind Direction,Wind SpeedMPH,Gust SpeedMPH,PrecipitationIn,Events,Conditions,WindDirDegrees,DateUTC
12:53 AM,59.0,57.0,93,29.65,3.0,NNE,9.2,19.6,0.01,Rain,Light Rain,20,2012-10-01 05:53:00
1:29 AM,57.2,55.4,94,29.64,2.5,North,8.1,19.6,0.02,Rain,Light Rain,10,2012-10-01 06:29:00
1:53 AM,57.9,57.0,97,29.64,2.5,NNE,11.5,16.1,0.04,Rain,Light Rain,20,2012-10-01 06:53:00
2:38 AM,59.0,57.2,94,29.63,3.0,Variable,5.8,-,0.04,Rain,Light Rain,0,2012-10-01 07:38:00
2:53 AM,59.0,57.0,93,29.62,3.0,Variable,6.9,-,0.05,Rain,Light Rain,0,2012-10-01 07:53:00
3:53 AM,59.0,57.9,96,29.62,3.0,North,8.1,-,0.01,Rain,Light Rain,10,2012-10-01 08:53:00
5:10 AM,59.0,57.2,94,29.61,4.0,Variable,3.5,-,0.00,Rain,Light Rain,0,2012-10-01 10:10:00
5:20 AM,59.0,57.2,94,29.62,5.0,North,11.5,20.7,0.00,Rain,Light Rain,350,2012-10-01 10:20:00
5:53 AM,59.0,57.0,93,29.62,5.0,Variable,5.8,-,0.00,Rain,Light Rain,0,2012-10-01 10:53:00
7:07 AM,59.0,57.2,94,29.63,3.0,North,9.2,21.9,0.00,Rain,Light Rain,350,2012-10-01 12:07:00
7:14 AM,59.0,57.2,94,29.64,4.0,North,9.2,21.9,0.00,Rain,Light Rain,350,2012-10-01 12:14:00
7:23 AM,59.0,57.2,94,29.64,4.0,North,9.2,19.6,0.00,Rain,Light Rain,360,2012-10-01 12:23:00
7:34 AM,59.0,57.2,94,29.64,2.5,NNW,12.7,19.6,0.01,Rain,Light Rain,340,2012-10-01 12:34:00
7:41 AM,59.0,57.2,94,29.65,2.0,North,8.1,19.6,0.01,Rain,Light Rain,350,2012-10-01 12:41:00
7:49 AM,59.0,57.2,94,29.65,2.5,North,9.2,-,0.01,Rain,Light Rain,350,2012-10-01 12:49:00
7:53 AM,59.0,57.0,93,29.65,3.0,NNW,10.4,19.6,0.01,Rain,Light Rain,340,2012-10-01 12:53:00
8:12 AM,59.0,57.2,94,29.65,2.5,NNW,13.8,24.2,0.01,Rain,Light Rain,330,2012-10-01 13:12:00
8:22 AM,59.0,57.2,94,29.65,1.8,NNW,9.2,20.7,0.05,Rain,Heavy Rain,330,2012-10-01 13:22:00
8:37 AM,59.0,57.2,94,29.65,1.5,North,10.4,18.4,0.12,Rain,Rain,350,2012-10-01 13:37:00
8:46 AM,59.0,57.2,94,29.65,2.5,North,10.4,18.4,0.14,Rain,Rain,350,2012-10-01 13:46:00
8:53 AM,59.0,57.0,93,29.65,3.0,North,10.4,18.4,0.15,Rain,Rain,360,2012-10-01 13:53:00
9:05 AM,60.8,57.2,88,29.66,2.0,NNE,10.4,18.4,0.03,Rain,Rain,20,2012-10-01 14:05:00
9:14 AM,60.8,57.2,88,29.66,2.0,Variable,5.8,-,0.04,Rain,Rain,0,2012-10-01 14:14:00
9:53 AM,60.1,57.9,93,29.66,4.0,North,9.2,-,0.09,Rain,Light Rain,350,2012-10-01 14:53:00
10:38 AM,60.8,57.2,88,29.67,10.0,Variable,6.9,16.1,0.03,Rain,Light Rain,0,2012-10-01 15:38:00
10:53 AM,61.0,57.9,90,29.68,8.0,NNW,6.9,-,0.03,,Overcast,330,2012-10-01 15:53:00
11:05 AM,62.6,59.0,88,29.68,6.0,NNW,6.9,-,N/A,,Overcast,330,2012-10-01 16:05:00
11:53 AM,64.9,60.1,84,29.66,10.0,NW,8.1,-,0.00,,Overcast,320,2012-10-01 16:53:00
12:22 PM,64.4,59.0,83,29.67,10.0,NNW,8.1,-,N/A,,Overcast,340,2012-10-01 17:22:00
12:37 PM,64.4,57.2,77,29.67,10.0,NNW,8.1,17.3,N/A,,Overcast,330,2012-10-01 17:37:00
12:53 PM,66.0,59.0,78,29.67,10.0,NW,11.5,16.1,N/A,,Overcast,320,2012-10-01 17:53:00
1:53 PM,69.1,57.9,68,29.66,10.0,NW,10.4,-,N/A,,Overcast,320,2012-10-01 18:53:00
2:53 PM,71.1,57.0,61,29.66,10.0,North,8.1,-,N/A,,Overcast,360,2012-10-01 19:53:00
3:53 PM,71.1,55.0,57,29.67,10.0,NNW,10.4,18.4,N/A,,Overcast,340,2012-10-01 20:53:00
4:53 PM,69.1,55.0,61,29.68,10.0,NW,3.5,-,N/A,,Overcast,320,2012-10-01 21:53:00
5:53 PM,69.1,57.0,65,29.68,10.0,Calm,Calm,-,N/A,,Partly Cloudy,0,2012-10-01 22:53:00
6:53 PM,64.9,61.0,87,29.70,10.0,West,3.5,-,N/A,,Clear,260,2012-10-01 23:53:00
7:53 PM,63.0,60.1,90,29.71,10.0,Calm,Calm,-,N/A,,Clear,0,2012-10-02 00:53:00
8:53 PM,64.0,59.0,84,29.74,10.0,Calm,Calm,-,N/A,,Clear,0,2012-10-02 01:53:00
9:53 PM,63.0,57.9,84,29.76,10.0,Calm,Calm,-,N/A,,Clear,0,2012-10-02 02:53:00
11:53 PM,59.0,57.0,93,29.78,10.0,Calm,Calm,-,N/A,,Clear,0,2012-10-02 04:53:00